COSMOS 2251 DEB, 34756

Orbit data source: Space-Track

COSMOS 2251 DEB, 34756 is space debris in LEO originally from a launch on Wed, 16 Jun 1993 UTC launched from the Plesetsk Missile And Space Complex (PKMTR). The debris from Iridium 33, an American commercial communications satellite, has been tracked extensively since its accidental collision with the defunct Russian satellite Cosmos 2251 in 2009. This event, occurring at high speed in low Earth orbit (LEO), generated thousands of pieces of space debris, significantly increasing the risk of further collisions. The Iridium 33 debris cloud has impacted space traffic management and orbital debris mitigation strategies, making it a subject of ongoing study in space situational awareness.

Loading next visibility...
Identifier
34756, 1993-036AAA
Orbit
LEO
Country
Flag of CISCIS
Related business
Manufacturer
Unknown
Mission
Spacecraft
Bus & Motor
Unknown
Mass
Unknown
Launch date (UTC)
1993-06-16 (33 years ago)
Launch vehicle
Unknown
Launch site
Plesetsk Missile And Space Complex (PKMTR)
Object type
Payload
Rocket body
Debris
Shape & HBR
Unknown shape, 0.1 m
Radar Cross Section
Medium (>0.1 m² and <1 m²)

Expand to show TLE details & history
Last TLE update: 21 hours ago

TLE from 21 hours ago
0 COSMOS 2251 DEB
1 34756U 93036AAA 26236.19750827  .00001070  00000-0  86536-3 0  9993
2 34756  74.0037  45.6773 0339387 228.2233 128.9426 13.67832847869009
Epoch: 2026-08-24T04:44Z
TLE epoch observation values (Epoch: 2026-08-24T04:44:24.714Z)
Latitude
0.00001°
Longitude
2.09166°
Altitude
1,172.442 km
Speed
7.187 km/s
True Right ascension
03h 02m 42s
True Declination
0° 00' 00"
Sunlit
Object was in daylight at epoch
Visualization orbit readout
Latitude
Unknown
Longitude
Unknown
Altitude
Unknown
Speed
Unknown
Apparent Right ascension
Unknown
Apparent Declination
Unknown
Sunlit
N/A
Visualization observer readout
Local Sidereal Time
17:08:51
Azimuth
Unknown
Elevation
Unknown
Doppler factor
Unknown
Orbital elements
Apogee altitude
1,255.637 km
Perigee altitude
754.484 km
Semi-major axis
7,383.197 km
Eccentricity
0.03394
Inclination
74.0037°
RAAN
45.6773°
Arg. of periapsis
228.2233°
True anomaly
131.88751°
Mean anomaly
128.9426°
Eccentric anomaly
130.42294°
Mean motion
3.42118 °/min
Orbital period
105.23 mins
BSTAR
0.00086536
Loading maneuver chart data...
Computing Atmospheric mass density...

Documentation

Showing up to 5 results
|